Regional Weather Roundup
Issued by NWS

Home | Current Version | Previous Version | Graphics & Text | Print | Product List | Glossary On
Versions: 1 2 3 4 5 6 7 8 9 10 11 12 13 14 15 16 17 18 19 20 21 22 23 24 25 26 27 28 29 30 31 32 33 34 35 36 37 38 39 40 41 42 43 44 45 46 47 48 49 50
154
ASUS44 KLIX 210901
RWRLA
LOUISIANA WEATHER ROUNDUP
NATIONAL WEATHER SERVICE NEW ORLEANS LA
400 AM CDT TUE OCT 21 2014

NOTE: "FAIR" INDICATES FEW OR NO CLOUDS BELOW 12,000 FEET WITH NO
      SIGNIFICANT WEATHER AND/OR OBSTRUCTIONS TO VISIBILITY.
      SKY/WX - SKY CONDITION AND SIGNIFICANT WEATHER.
      TMP - AIR TEMPERATURE.    DP   - DEWPOINT TEMPERATURE.
      RH  - RELATIVE HUMIDITY.  PRES - PRESSURE.
      HX  - HEAT INDEX.         WCI  - WIND CHILL INDEX.

*  THESE STATIONS ARE NOT NWS OR FAA STATIONS AND ARE NOT UNDER
   NWS QUALITY CONTROL.

LAZ040-048-061>063-065-066-069-211000-
SOUTHEAST LOUISIANA

CITY           SKY/WX    TMP DP  RH WIND       PRES   REMARKS
N.O. AUDUBON   NOT AVBL
N.O. INTL ARPT PTCLDY    61  54  77 CALM      30.00S
N.O. LAKEFRONT CLEAR     69  55  60 E10       30.01S
N.O. DOWNTOWN* FAIR      68  52  56 NE6       30.01S
SLIDELL        CLEAR     52  49  89 CALM      30.00S
BATON ROUGE    CLEAR     56  52  86 NE3       30.01S
BOOTHVILLE     CLEAR     71  62  73 NE3       30.00R
BELLE CHASSE   CLEAR     54  51  90 CALM      30.00S
BOGALUSA*        N/A     50  47  89 CALM      30.03S
NEW ROADS*     FAIR      55  54  97 CALM      30.02S
GONZALES*      FAIR      56  56 100 CALM      30.00S
HAMMOND*       NOT AVBL
HOUMA*         CLEAR     54  53  98 CALM      30.00S
PORT FOURCHON* SUNNY     70  63  78 NE7       30.02S

$$

LAZ041-044-053-054-211000-
SOUTHWEST LOUISIANA

CITY           SKY/WX    TMP DP  RH WIND       PRES   REMARKS
LAKE CHARLES   CLEAR     56  54  93 CALM      30.01S
LAFAYETTE      CLEAR     57  54  89 NE3       30.00F
PATTERSON      NOT AVBL
SALT POINT       N/A     62  58  86 CALM      29.99S
NEW IBERIA     CLEAR     60  55  83 CALM      30.01F
CHENAULT AIRPK CLEAR     56  55  93 CALM      30.02S

$$

LAZ027-028-211000-
CENTRAL LOUISIANA

CITY           SKY/WX    TMP DP  RH WIND       PRES   REMARKS
FORT POLK      CLEAR     60  53  78 NE3       30.01F
ALEXANDRIA INT CLEAR     55  54  96 CALM      30.01S
ALEXANDRIA     CLEAR     53  51  93 CALM      30.03S

$$

LAZ001-002-211000-
NORTHWEST LOUISIANA

CITY           SKY/WX    TMP DP  RH WIND       PRES   REMARKS
SHREVEPORT     CLEAR     57  54  89 CALM      30.03S
BARKSDALE AFB  CLEAR     55  54  97 CALM      30.03F
DTN SHREVEPORT CLEAR     56  54  93 CALM      30.04S

$$

LAZ014-016-211000-
NORTHEAST LOUISIANA

CITY           SKY/WX    TMP DP  RH WIND       PRES   REMARKS
MONROE         PTCLDY    54  54 100 CALM      30.05S FOG
TALLULAH       PTCLDY    49  48  97 CALM      30.04R

$$




USA.gov is the U.S. government's official web portal to all federal, state and local government web resources and services.